START_TIME,STEP,MOV.,E45,t_acc.,ALAR?,t_acc.,A12,t_acc.,A24,t_acc.
1979-08-05 21:00:24.910 ,0,0,3.,4.8,256.,4.8,0.,4.8,0.,4.8
1979-08-05 21:00:29.710 ,0,0,4.,4.8,296.,4.8,0.,4.8,1.,4.8
1979-08-05 21:00:34.510 ,0,0,3.,4.8,296.,4.8,0.,4.8,0.,4.8
1979-08-05 21:00:39.310 ,0,0,5.,4.8,280.,4.8,0.,4.8,0.,4.8
1979-08-05 21:00:44.110 ,0,0,5.,4.8,264.,4.8,0.,4.8,0.,4.8
1979-08-05 21:00:48.910 ,0,0,4.,4.8,296.,4.8,0.,4.8,0.,4.8
1979-08-05 21:00:53.710 ,0,0,1.,4.8,296.,4.8,0.,4.8,0.,4.8
1979-08-05 21:00:58.510 ,0,0,2.,4.8,280.,4.8,0.,4.8,0.,4.8
1979-08-05 21:01:03.310 ,0,0,3.,4.8,272.,4.8,0.,4.8,0.,4.8
1979-08-05 21:01:08.110 ,0,0,3.,4.8,280.,4.8,0.,4.8,0.,4.8
1979-08-05 21:01:12.910 ,0,0,3.,4.8,272.,4.8,0.,4.8,0.,4.8
1979-08-05 21:01:17.710 ,0,0,5.,4.8,248.,4.8,0.,4.8,0.,4.8
1979-08-05 21:01:22.510 ,0,0,3.,4.8,304.,4.8,0.,4.8,0.,4.8
1979-08-05 21:01:27.310 ,0,0,5.,4.8,288.,4.8,0.,4.8,0.,4.8
1979-08-05 21:01:32.110 ,0,0,3.,4.8,252.,4.8,0.,4.8,0.,4.8
1979-08-05 21:01:36.910 ,1,0,2.,4.8,280.,4.8,0.,4.8,0.,4.8
1979-08-05 21:01:41.710 ,1,0,2.,4.8,296.,4.8,0.,4.8,0.,4.8
1979-08-05 21:01:46.510 ,1,0,5.,4.8,288.,4.8,0.,4.8,0.,4.8
1979-08-05 21:01:51.310 ,1,0,5.,4.8,264.,4.8,0.,4.8,0.,4.8
1979-08-05 21:01:56.110 ,1,0,4.,4.8,296.,4.8,0.,4.8,0.,4.8
1979-08-05 21:02:00.910 ,1,0,5.,4.8,280.,4.8,0.,4.8,0.,4.8
1979-08-05 21:02:05.710 ,1,0,2.,4.8,280.,4.8,0.,4.8,0.,4.8
1979-08-05 21:02:10.510 ,1,0,3.,4.8,280.,4.8,0.,4.8,0.,4.8
1979-08-05 21:02:15.310 ,1,0,7.,4.8,280.,4.8,0.,4.8,0.,4.8
1979-08-05 21:02:20.110 ,1,0,2.,4.8,280.,4.8,0.,4.8,0.,4.8
1979-08-05 21:02:24.910 ,2,0,3.,4.8,280.,4.8,0.,4.8,0.,4.8
1979-08-05 21:02:29.710 ,2,0,3.,4.8,280.,4.8,0.,4.8,0.,4.8
1979-08-05 21:02:34.510 ,2,0,1.,4.8,296.,4.8,0.,4.8,0.,4.8
1979-08-05 21:02:39.310 ,2,0,3.,4.8,288.,4.8,0.,4.8,0.,4.8
1979-08-05 21:02:44.110 ,2,0,5.,4.8,280.,4.8,0.,4.8,0.,4.8
1979-08-05 21:02:48.910 ,2,0,2.,4.8,272.,4.8,0.,4.8,0.,4.8
1979-08-05 21:02:53.710 ,2,0,0.,4.8,280.,4.8,0.,4.8,0.,4.8
1979-08-05 21:02:58.510 ,2,0,3.,4.8,288.,4.8,0.,4.8,0.,4.8
1979-08-05 21:03:03.310 ,2,0,3.,4.8,304.,4.8,0.,4.8,0.,4.8
1979-08-05 21:03:08.110 ,2,0,6.,4.8,296.,4.8,0.,4.8,0.,4.8
1979-08-05 21:03:12.910 ,3,0,5.,4.8,288.,4.8,0.,4.8,0.,4.8
1979-08-05 21:03:17.710 ,3,0,2.,4.8,256.,4.8,0.,4.8,0.,4.8
1979-08-05 21:03:22.510 ,3,0,1.,4.8,252.,4.8,0.,4.8,0.,4.8
1979-08-05 21:03:27.310 ,3,0,3.,4.8,264.,4.8,0.,4.8,0.,4.8
1979-08-05 21:03:32.110 ,3,0,3.,4.8,264.,4.8,0.,4.8,0.,4.8
1979-08-05 21:03:36.910 ,3,0,1.,4.8,280.,4.8,0.,4.8,0.,4.8
1979-08-05 21:03:41.710 ,3,0,2.,4.8,248.,4.8,0.,4.8,0.,4.8
1979-08-05 21:03:46.510 ,3,0,3.,4.8,252.,4.8,0.,4.8,0.,4.8
1979-08-05 21:03:51.310 ,3,0,1.,4.8,272.,4.8,0.,4.8,0.,4.8
1979-08-05 21:03:56.110 ,3,0,5.,4.8,280.,4.8,0.,4.8,0.,4.8
1979-08-05 21:04:00.910 ,4,0,2.,4.8,272.,4.8,0.,4.8,0.,4.8
1979-08-05 21:04:05.710 ,4,0,2.,4.8,264.,4.8,0.,4.8,0.,4.8
1979-08-05 21:04:10.510 ,4,0,3.,4.8,296.,4.8,0.,4.8,0.,4.8
1979-08-05 21:04:15.310 ,4,0,3.,4.8,288.,4.8,1.,4.8,0.,4.8
1979-08-05 21:04:20.110 ,4,0,4.,4.8,304.,4.8,0.,4.8,0.,4.8
1979-08-05 21:04:24.910 ,4,0,2.,4.8,272.,4.8,0.,4.8,0.,4.8
1979-08-05 21:04:29.710 ,4,0,5.,4.8,280.,4.8,0.,4.8,0.,4.8
1979-08-05 21:04:34.510 ,4,0,2.,4.8,264.,4.8,0.,4.8,0.,4.8
1979-08-05 21:04:39.310 ,4,0,2.,4.8,272.,4.8,0.,4.8,0.,4.8
1979-08-05 21:04:44.110 ,4,0,2.,4.8,288.,4.8,0.,4.8,0.,4.8
1979-08-05 21:04:48.910 ,5,0,2.,4.8,264.,4.8,0.,4.8,0.,4.8
1979-08-05 21:04:53.710 ,5,0,5.,4.8,288.,4.8,0.,4.8,0.,4.8
1979-08-05 21:04:58.510 ,5,0,1.,4.8,312.,4.8,0.,4.8,0.,4.8
1979-08-05 21:05:03.310 ,5,0,9.,4.8,288.,4.8,0.,4.8,0.,4.8
1979-08-05 21:05:08.110 ,5,0,0.,4.8,264.,4.8,1.,4.8,0.,4.8
1979-08-05 21:05:12.910 ,5,0,0.,4.8,288.,4.8,0.,4.8,0.,4.8
1979-08-05 21:05:17.710 ,5,0,5.,4.8,280.,4.8,0.,4.8,0.,4.8
1979-08-05 21:05:22.510 ,5,0,5.,4.8,256.,4.8,0.,4.8,0.,4.8
1979-08-05 21:05:27.310 ,5,0,2.,4.8,288.,4.8,0.,4.8,0.,4.8
1979-08-05 21:05:32.110 ,5,0,3.,4.8,280.,4.8,0.,4.8,0.,4.8
1979-08-05 21:05:36.910 ,6,0,6.,4.8,264.,4.8,0.,4.8,0.,4.8
1979-08-05 21:05:41.710 ,6,0,6.,4.8,304.,4.8,0.,4.8,0.,4.8
1979-08-05 21:05:46.510 ,6,0,3.,4.8,288.,4.8,0.,4.8,0.,4.8
1979-08-05 21:05:51.310 ,6,0,3.,4.8,280.,4.8,0.,4.8,0.,4.8
1979-08-05 21:05:56.110 ,6,0,1.,4.8,272.,4.8,0.,4.8,0.,4.8
1979-08-05 21:06:00.910 ,6,0,7.,4.8,296.,4.8,0.,4.8,0.,4.8
1979-08-05 21:06:05.710 ,6,0,4.,4.8,288.,4.8,0.,4.8,0.,4.8
1979-08-05 21:06:10.510 ,6,0,3.,4.8,264.,4.8,0.,4.8,0.,4.8
1979-08-05 21:06:15.310 ,6,0,2.,4.8,288.,4.8,0.,4.8,0.,4.8
1979-08-05 21:06:20.110 ,6,0,2.,4.8,288.,4.8,0.,4.8,0.,4.8
1979-08-05 21:06:24.910 ,7,0,4.,4.8,320.,4.8,0.,4.8,0.,4.8
1979-08-05 21:06:29.710 ,7,0,4.,4.8,272.,4.8,0.,4.8,0.,4.8
1979-08-05 21:06:34.510 ,7,0,4.,4.8,256.,4.8,0.,4.8,0.,4.8
1979-08-05 21:06:39.310 ,7,0,0.,4.8,280.,4.8,0.,4.8,0.,4.8
1979-08-05 21:06:44.110 ,7,0,1.,4.8,312.,4.8,0.,4.8,0.,4.8
1979-08-05 21:06:48.910 ,7,0,2.,4.8,228.,4.8,0.,4.8,0.,4.8
1979-08-05 21:06:53.710 ,7,0,3.,4.8,272.,4.8,0.,4.8,0.,4.8
1979-08-05 21:06:58.510 ,7,0,3.,4.8,244.,4.8,0.,4.8,0.,4.8
1979-08-05 21:07:03.310 ,7,0,2.,4.8,280.,4.8,0.,4.8,0.,4.8
1979-08-05 21:07:08.110 ,7,0,1.,4.8,280.,4.8,0.,4.8,0.,4.8
1979-08-05 21:07:12.910 ,3,1,5.,4.8,264.,4.8,0.,4.8,0.,4.8
1979-08-05 21:07:17.710 ,3,1,7.,4.8,304.,4.8,0.,4.8,0.,4.8
1979-08-05 21:07:22.510 ,3,1,3.,4.8,256.,4.8,0.,4.8,0.,4.8
1979-08-05 21:07:27.310 ,3,1,8.,4.8,288.,4.8,0.,4.8,1.,4.8
1979-08-05 21:07:32.110 ,3,1,4.,4.8,304.,4.8,1.,4.8,0.,4.8
1979-08-05 21:07:36.910 ,0,1,2.,4.8,280.,4.8,0.,4.8,0.,4.8
1979-08-05 21:07:41.710 ,0,1,5.,4.8,272.,4.8,0.,4.8,0.,4.8
1979-08-05 21:07:46.510 ,0,1,5.,4.8,256.,4.8,0.,4.8,0.,4.8
1979-08-05 21:07:51.310 ,0,1,2.,4.8,280.,4.8,0.,4.8,0.,4.8
1979-08-05 21:07:56.110 ,0,1,1.,4.8,272.,4.8,0.,4.8,0.,4.8
1979-08-05 21:08:00.910 ,4,1,0.,4.8,272.,4.8,0.,4.8,0.,4.8
1979-08-05 21:08:05.710 ,4,1,5.,4.8,296.,4.8,0.,4.8,0.,4.8
1979-08-05 21:08:10.510 ,4,1,6.,4.8,264.,4.8,0.,4.8,0.,4.8
1979-08-05 21:08:15.310 ,4,1,7.,4.8,288.,4.8,0.,4.8,0.,4.8
1979-08-05 21:08:20.110 ,4,1,5.,4.8,296.,4.8,0.,4.8,0.,4.8
1979-08-05 21:08:24.910 ,7,1,4.,4.8,288.,4.8,0.,4.8,0.,4.8
1979-08-05 21:08:29.710 ,7,1,5.,4.8,280.,4.8,0.,4.8,0.,4.8
1979-08-05 21:08:34.510 ,7,1,3.,4.8,264.,4.8,0.,4.8,0.,4.8
1979-08-05 21:08:39.310 ,7,1,3.,4.8,288.,4.8,0.,4.8,0.,4.8
1979-08-05 21:08:44.110 ,7,1,1.,4.8,312.,4.8,0.,4.8,0.,4.8
1979-08-05 21:08:48.910 ,3,1,2.,4.8,288.,4.8,0.,4.8,0.,4.8
1979-08-05 21:08:53.710 ,3,1,3.,4.8,280.,4.8,0.,4.8,0.,4.8
1979-08-05 21:08:58.510 ,3,1,6.,4.8,264.,4.8,0.,4.8,0.,4.8
1979-08-05 21:09:03.310 ,3,1,1.,4.8,296.,4.8,0.,4.8,0.,4.8
1979-08-05 21:09:08.110 ,3,1,1.,4.8,280.,4.8,0.,4.8,0.,4.8
1979-08-05 21:09:12.910 ,0,1,2.,4.8,280.,4.8,0.,4.8,0.,4.8
1979-08-05 21:09:17.710 ,0,1,6.,4.8,248.,4.8,0.,4.8,0.,4.8
1979-08-05 21:09:22.510 ,0,1,3.,4.8,296.,4.8,0.,4.8,0.,4.8
1979-08-05 21:09:27.310 ,0,1,2.,4.8,280.,4.8,0.,4.8,0.,4.8
1979-08-05 21:09:32.110 ,0,1,2.,4.8,272.,4.8,0.,4.8,0.,4.8
1979-08-05 21:09:36.910 ,4,1,6.,4.8,264.,4.8,0.,4.8,0.,4.8
1979-08-05 21:09:41.710 ,4,1,4.,4.8,280.,4.8,0.,4.8,0.,4.8
1979-08-05 21:09:46.510 ,4,1,4.,4.8,304.,4.8,0.,4.8,0.,4.8
1979-08-05 21:09:51.310 ,4,1,5.,4.8,264.,4.8,0.,4.8,0.,4.8
1979-08-05 21:09:56.110 ,4,1,2.,4.8,280.,4.8,0.,4.8,0.,4.8
1979-08-05 21:10:00.910 ,7,1,3.,4.8,304.,4.8,0.,4.8,0.,4.8
1979-08-05 21:10:05.710 ,7,1,6.,4.8,244.,4.8,0.,4.8,0.,4.8
1979-08-05 21:10:10.510 ,7,1,4.,4.8,280.,4.8,0.,4.8,0.,4.8
1979-08-05 21:10:15.310 ,7,1,2.,4.8,272.,4.8,0.,4.8,0.,4.8
1979-08-05 21:10:20.110 ,7,1,2.,4.8,272.,4.8,1.,4.8,0.,4.8
1979-08-05 21:10:24.910 ,3,1,3.,4.8,264.,4.8,0.,4.8,0.,4.8
1979-08-05 21:10:29.710 ,3,1,5.,4.8,272.,4.8,0.,4.8,0.,4.8
1979-08-05 21:10:34.510 ,3,1,1.,4.8,264.,4.8,0.,4.8,0.,4.8
1979-08-05 21:10:39.310 ,3,1,2.,4.8,296.,4.8,0.,4.8,0.,4.8
1979-08-05 21:10:44.110 ,3,1,2.,4.8,304.,4.8,0.,4.8,0.,4.8
1979-08-05 21:10:48.910 ,0,1,3.,4.8,288.,4.8,0.,4.8,0.,4.8
1979-08-05 21:10:53.710 ,0,1,1.,4.8,288.,4.8,0.,4.8,0.,4.8
1979-08-05 21:10:58.510 ,0,1,3.,4.8,256.,4.8,0.,4.8,0.,4.8
1979-08-05 21:11:03.310 ,0,1,4.,4.8,272.,4.8,0.,4.8,0.,4.8
1979-08-05 21:11:08.110 ,0,1,1.,4.8,288.,4.8,0.,4.8,0.,4.8
1979-08-05 21:11:12.910 ,4,1,3.,4.8,296.,4.8,0.,4.8,0.,4.8
1979-08-05 21:11:17.710 ,4,1,4.,4.8,272.,4.8,0.,4.8,0.,4.8
1979-08-05 21:11:22.510 ,4,1,9.,4.8,272.,4.8,0.,4.8,0.,4.8
1979-08-05 21:11:27.310 ,4,1,1.,4.8,288.,4.8,0.,4.8,0.,4.8
1979-08-05 21:11:32.110 ,4,1,4.,4.8,296.,4.8,0.,4.8,0.,4.8
1979-08-05 21:11:36.910 ,7,1,3.,4.8,320.,4.8,0.,4.8,0.,4.8
1979-08-05 21:11:41.710 ,7,1,6.,4.8,280.,4.8,0.,4.8,0.,4.8
1979-08-05 21:11:46.510 ,7,1,4.,4.8,288.,4.8,0.,4.8,0.,4.8
1979-08-05 21:11:51.310 ,7,1,3.,4.8,312.,4.8,0.,4.8,0.,4.8
1979-08-05 21:11:56.110 ,7,1,2.,4.8,256.,4.8,0.,4.8,0.,4.8
1979-08-05 21:12:00.910 ,3,1,3.,4.8,312.,4.8,0.,4.8,0.,4.8
1979-08-05 21:12:05.710 ,3,1,5.,4.8,264.,4.8,0.,4.8,0.,4.8
1979-08-05 21:12:10.510 ,3,1,2.,4.8,264.,4.8,0.,4.8,0.,4.8
1979-08-05 21:12:15.310 ,3,1,3.,4.8,312.,4.8,0.,4.8,0.,4.8
1979-08-05 21:12:20.110 ,3,1,2.,4.8,288.,4.8,0.,4.8,0.,4.8
1979-08-05 21:12:24.910 ,0,1,6.,4.8,312.,4.8,0.,4.8,0.,4.8
1979-08-05 21:12:29.710 ,0,1,2.,4.8,264.,4.8,0.,4.8,0.,4.8
1979-08-05 21:12:34.510 ,0,1,2.,4.8,288.,4.8,0.,4.8,0.,4.8
1979-08-05 21:12:39.310 ,0,1,1.,4.8,304.,4.8,0.,4.8,0.,4.8
1979-08-05 21:12:44.110 ,0,1,2.,4.8,264.,4.8,0.,4.8,0.,4.8
1979-08-05 21:12:49.510 ,4,1,2.,4.8,296.,4.8,0.,4.8,0.,4.8
1979-08-05 21:12:54.310 ,4,1,5.,4.8,296.,4.8,0.,4.8,0.,4.8
1979-08-05 21:12:59.110 ,4,1,7.,4.8,320.,4.8,0.,4.8,0.,4.8
1979-08-05 21:13:03.910 ,4,1,1.,4.8,304.,4.8,0.,4.8,0.,4.8
1979-08-05 21:13:08.710 ,4,1,5.,4.8,296.,4.8,0.,4.8,0.,4.8
1979-08-05 21:13:12.910 ,7,1,6.,4.8,296.,4.8,0.,4.8,0.,4.8
1979-08-05 21:13:17.710 ,7,1,6.,4.8,312.,4.8,0.,4.8,0.,4.8
1979-08-05 21:13:22.510 ,7,1,2.,4.8,280.,4.8,0.,4.8,0.,4.8
1979-08-05 21:13:27.310 ,7,1,4.,4.8,288.,4.8,0.,4.8,0.,4.8
1979-08-05 21:13:32.110 ,7,1,9.,4.8,288.,4.8,0.,4.8,0.,4.8
1979-08-05 21:13:36.910 ,3,1,2.,4.8,288.,4.8,0.,4.8,0.,4.8
1979-08-05 21:13:41.710 ,3,1,4.,4.8,296.,4.8,0.,4.8,0.,4.8
1979-08-05 21:13:46.510 ,3,1,5.,4.8,296.,4.8,0.,4.8,0.,4.8
1979-08-05 21:13:51.310 ,3,1,5.,4.8,280.,4.8,0.,4.8,0.,4.8
1979-08-05 21:13:56.110 ,3,1,2.,4.8,288.,4.8,0.,4.8,0.,4.8
1979-08-05 21:14:00.910 ,0,1,5.,4.8,272.,4.8,0.,4.8,0.,4.8
1979-08-05 21:14:05.710 ,0,1,4.,4.8,304.,4.8,0.,4.8,0.,4.8
1979-08-05 21:14:10.510 ,0,1,0.,4.8,320.,4.8,0.,4.8,0.,4.8
1979-08-05 21:14:15.310 ,0,1,5.,4.8,280.,4.8,0.,4.8,0.,4.8
1979-08-05 21:14:20.110 ,0,1,3.,4.8,320.,4.8,0.,4.8,0.,4.8
1979-08-05 21:14:24.910 ,4,1,3.,4.8,328.,4.8,0.,4.8,0.,4.8
1979-08-05 21:14:29.710 ,4,1,3.,4.8,272.,4.8,0.,4.8,0.,4.8
1979-08-05 21:14:34.510 ,4,1,1.,4.8,280.,4.8,0.,4.8,0.,4.8
1979-08-05 21:14:39.310 ,4,1,1.,4.8,312.,4.8,0.,4.8,0.,4.8
1979-08-05 21:14:44.110 ,4,1,7.,4.8,304.,4.8,0.,4.8,0.,4.8
1979-08-05 21:14:48.910 ,7,1,8.,4.8,328.,4.8,0.,4.8,0.,4.8
1979-08-05 21:14:53.710 ,7,1,3.,4.8,264.,4.8,0.,4.8,0.,4.8
1979-08-05 21:14:58.510 ,7,1,4.,4.8,288.,4.8,0.,4.8,0.,4.8
1979-08-05 21:15:03.310 ,7,1,6.,4.8,296.,4.8,0.,4.8,0.,4.8
1979-08-05 21:15:08.110 ,7,1,2.,4.8,304.,4.8,0.,4.8,0.,4.8
1979-08-05 21:15:12.910 ,3,1,2.,4.8,296.,4.8,0.,4.8,0.,4.8
1979-08-05 21:15:17.710 ,3,1,1.,4.8,312.,4.8,0.,4.8,0.,4.8
1979-08-05 21:15:22.510 ,3,1,7.,4.8,312.,4.8,0.,4.8,0.,4.8
1979-08-05 21:15:27.310 ,3,1,2.,4.8,328.,4.8,0.,4.8,0.,4.8
1979-08-05 21:15:32.110 ,3,1,3.,4.8,312.,4.8,0.,4.8,0.,4.8
1979-08-05 21:15:36.910 ,0,1,1.,4.8,280.,4.8,0.,4.8,0.,4.8
1979-08-05 21:15:41.710 ,0,1,5.,4.8,320.,4.8,0.,4.8,0.,4.8
1979-08-05 21:15:46.510 ,0,1,3.,4.8,320.,4.8,0.,4.8,0.,4.8
1979-08-05 21:15:51.310 ,0,1,6.,4.8,336.,4.8,0.,4.8,0.,4.8
1979-08-05 21:15:56.110 ,0,1,3.,4.8,312.,4.8,0.,4.8,0.,4.8
1979-08-05 21:16:00.910 ,4,1,2.,4.8,320.,4.8,0.,4.8,0.,4.8
1979-08-05 21:16:05.710 ,4,1,2.,4.8,288.,4.8,0.,4.8,0.,4.8
1979-08-05 21:16:10.510 ,4,1,,0,,0,,0,,0
1979-08-05 21:16:15.310 ,4,1,2.,4.8,296.,4.8,0.,4.8,0.,4.8
1979-08-05 21:16:20.110 ,4,1,1.,4.8,344.,4.8,0.,4.8,0.,4.8
1979-08-05 21:16:24.910 ,7,1,3.,4.8,328.,4.8,0.,4.8,0.,4.8
1979-08-05 21:16:29.710 ,7,1,7.,4.8,296.,4.8,0.,4.8,0.,4.8
1979-08-05 21:16:34.510 ,7,1,4.,4.8,280.,4.8,0.,4.8,0.,4.8
1979-08-05 21:16:39.310 ,7,1,2.,4.8,272.,4.8,0.,4.8,0.,4.8
1979-08-05 21:16:44.110 ,7,1,1.,4.8,304.,4.8,0.,4.8,0.,4.8
1979-08-05 21:16:48.910 ,3,1,4.,4.8,296.,4.8,0.,4.8,0.,4.8
1979-08-05 21:16:53.710 ,3,1,4.,4.8,304.,4.8,0.,4.8,0.,4.8
1979-08-05 21:16:58.510 ,3,1,3.,4.8,320.,4.8,0.,4.8,0.,4.8
1979-08-05 21:17:03.310 ,3,1,4.,4.8,336.,4.8,0.,4.8,0.,4.8
1979-08-05 21:17:08.110 ,3,1,4.,4.8,296.,4.8,0.,4.8,0.,4.8
1979-08-05 21:17:12.910 ,0,1,4.,4.8,272.,4.8,0.,4.8,0.,4.8
1979-08-05 21:17:17.710 ,0,1,2.,4.8,312.,4.8,0.,4.8,0.,4.8
1979-08-05 21:17:22.510 ,0,1,6.,4.8,320.,4.8,0.,4.8,0.,4.8
1979-08-05 21:17:27.310 ,0,1,3.,4.8,304.,4.8,0.,4.8,0.,4.8
1979-08-05 21:17:32.110 ,0,1,3.,4.8,296.,4.8,0.,4.8,0.,4.8
1979-08-05 21:17:36.910 ,0,0,4.,4.8,312.,4.8,0.,4.8,1.,4.8
1979-08-05 21:17:41.710 ,0,0,4.,4.8,344.,4.8,0.,4.8,0.,4.8
1979-08-05 21:17:46.510 ,0,0,5.,4.8,304.,4.8,0.,4.8,0.,4.8
1979-08-05 21:17:51.310 ,0,0,3.,4.8,328.,4.8,0.,4.8,0.,4.8
1979-08-05 21:17:56.110 ,0,0,3.,4.8,304.,4.8,0.,4.8,0.,4.8
1979-08-05 21:18:00.910 ,0,0,3.,4.8,312.,4.8,0.,4.8,0.,4.8
1979-08-05 21:18:05.710 ,0,0,7.,4.8,312.,4.8,0.,4.8,0.,4.8
1979-08-05 21:18:10.510 ,0,0,4.,4.8,296.,4.8,0.,4.8,0.,4.8
1979-08-05 21:18:15.310 ,0,0,5.,4.8,280.,4.8,0.,4.8,0.,4.8
1979-08-05 21:18:20.110 ,0,0,1.,4.8,312.,4.8,0.,4.8,0.,4.8
1979-08-05 21:18:24.910 ,5,0,1.,4.8,320.,4.8,0.,4.8,0.,4.8
1979-08-05 21:18:29.710 ,5,0,5.,4.8,288.,4.8,0.,4.8,0.,4.8
1979-08-05 21:18:34.510 ,5,0,2.,4.8,256.,4.8,0.,4.8,0.,4.8
1979-08-05 21:18:39.310 ,5,0,3.,4.8,320.,4.8,0.,4.8,0.,4.8
1979-08-05 21:18:44.110 ,5,0,,0,,0,,0,,0
1979-08-05 21:18:48.910 ,5,0,4.,4.8,312.,4.8,0.,4.8,0.,4.8
1979-08-05 21:18:53.710 ,5,0,5.,4.8,304.,4.8,0.,4.8,0.,4.8
1979-08-05 21:18:58.510 ,5,0,6.,4.8,312.,4.8,0.,4.8,0.,4.8
1979-08-05 21:19:03.310 ,5,0,1.,4.8,312.,4.8,0.,4.8,0.,4.8
1979-08-05 21:19:08.110 ,5,0,1.,4.8,288.,4.8,0.,4.8,0.,4.8
1979-08-05 21:19:12.910 ,4,0,6.,4.8,304.,4.8,0.,4.8,0.,4.8
1979-08-05 21:19:17.710 ,4,0,5.,4.8,288.,4.8,0.,4.8,0.,4.8
1979-08-05 21:19:22.510 ,4,0,7.,4.8,352.,4.8,0.,4.8,0.,4.8
1979-08-05 21:19:27.310 ,4,0,1.,4.8,344.,4.8,0.,4.8,0.,4.8
1979-08-05 21:19:32.110 ,4,0,1.,4.8,296.,4.8,0.,4.8,0.,4.8
1979-08-05 21:19:36.910 ,4,0,4.,4.8,312.,4.8,0.,4.8,0.,4.8
1979-08-05 21:19:41.710 ,4,0,6.,4.8,288.,4.8,0.,4.8,0.,4.8
1979-08-05 21:19:46.510 ,4,0,3.,4.8,296.,4.8,0.,4.8,0.,4.8
1979-08-05 21:19:51.310 ,4,0,3.,4.8,296.,4.8,0.,4.8,0.,4.8
1979-08-05 21:19:56.110 ,4,0,6.,4.8,280.,4.8,0.,4.8,0.,4.8
1979-08-05 21:20:00.910 ,3,0,6.,4.8,312.,4.8,0.,4.8,0.,4.8
1979-08-05 21:20:05.710 ,3,0,2.,4.8,280.,4.8,0.,4.8,1.,4.8
1979-08-05 21:20:10.510 ,3,0,5.,4.8,248.,4.8,0.,4.8,0.,4.8
1979-08-05 21:20:15.310 ,3,0,2.,4.8,288.,4.8,0.,4.8,0.,4.8
1979-08-05 21:20:20.110 ,3,0,2.,4.8,296.,4.8,0.,4.8,0.,4.8
1979-08-05 21:20:24.910 ,3,0,3.,4.8,288.,4.8,0.,4.8,0.,4.8
1979-08-05 21:20:29.710 ,3,0,4.,4.8,304.,4.8,0.,4.8,0.,4.8
1979-08-05 21:20:34.510 ,3,0,2.,4.8,272.,4.8,0.,4.8,0.,4.8
1979-08-05 21:20:39.310 ,3,0,3.,4.8,312.,4.8,0.,4.8,0.,4.8
1979-08-05 21:20:44.110 ,3,0,6.,4.8,280.,4.8,0.,4.8,0.,4.8
1979-08-05 21:20:48.910 ,2,0,1.,4.8,304.,4.8,0.,4.8,0.,4.8
1979-08-05 21:20:53.710 ,2,0,1.,4.8,320.,4.8,0.,4.8,0.,4.8
1979-08-05 21:20:58.510 ,2,0,4.,4.8,296.,4.8,0.,4.8,0.,4.8
1979-08-05 21:21:03.310 ,2,0,7.,4.8,280.,4.8,0.,4.8,0.,4.8
1979-08-05 21:21:08.110 ,2,0,5.,4.8,288.,4.8,0.,4.8,0.,4.8
1979-08-05 21:21:12.910 ,2,0,10.,4.8,288.,4.8,0.,4.8,0.,4.8
1979-08-05 21:21:17.710 ,2,0,0.,4.8,312.,4.8,0.,4.8,0.,4.8
1979-08-05 21:21:22.510 ,2,0,3.,4.8,312.,4.8,0.,4.8,0.,4.8
1979-08-05 21:21:27.310 ,2,0,4.,4.8,312.,4.8,0.,4.8,0.,4.8
1979-08-05 21:21:32.110 ,2,0,2.,4.8,304.,4.8,0.,4.8,0.,4.8
1979-08-05 21:21:36.910 ,1,0,3.,4.8,312.,4.8,0.,4.8,0.,4.8
1979-08-05 21:21:41.710 ,1,0,4.,4.8,280.,4.8,0.,4.8,0.,4.8
1979-08-05 21:21:46.510 ,1,0,4.,4.8,288.,4.8,0.,4.8,0.,4.8
1979-08-05 21:21:51.310 ,1,0,5.,4.8,296.,4.8,0.,4.8,0.,4.8
1979-08-05 21:21:56.110 ,1,0,4.,4.8,288.,4.8,0.,4.8,0.,4.8
1979-08-05 21:22:00.910 ,1,0,3.,4.8,304.,4.8,0.,4.8,0.,4.8
1979-08-05 21:22:05.710 ,1,0,6.,4.8,272.,4.8,0.,4.8,0.,4.8
1979-08-05 21:22:10.510 ,1,0,3.,4.8,288.,4.8,0.,4.8,0.,4.8
1979-08-05 21:22:15.310 ,1,0,3.,4.8,280.,4.8,0.,4.8,0.,4.8
1979-08-05 21:22:20.110 ,1,0,5.,4.8,328.,4.8,0.,4.8,0.,4.8
1979-08-05 21:22:24.910 ,0,0,3.,4.8,288.,4.8,0.,4.8,0.,4.8
1979-08-05 21:22:29.710 ,0,0,3.,4.8,320.,4.8,0.,4.8,0.,4.8
1979-08-05 21:22:34.510 ,0,0,3.,4.8,296.,4.8,0.,4.8,0.,4.8
1979-08-05 21:22:39.310 ,0,0,8.,4.8,312.,4.8,0.,4.8,0.,4.8
1979-08-05 21:22:44.110 ,0,0,4.,4.8,320.,4.8,0.,4.8,0.,4.8
1979-08-05 21:22:48.910 ,0,0,9.,4.8,312.,4.8,0.,4.8,0.,4.8
1979-08-05 21:22:53.710 ,0,0,10.,4.8,272.,4.8,0.,4.8,0.,4.8
1979-08-05 21:22:58.510 ,0,0,3.,4.8,312.,4.8,0.,4.8,0.,4.8
1979-08-05 21:23:03.310 ,0,0,6.,4.8,304.,4.8,0.,4.8,0.,4.8
1979-08-05 21:23:08.110 ,0,0,2.,4.8,304.,4.8,0.,4.8,0.,4.8
1979-08-05 21:23:12.910 ,0,0,5.,4.8,280.,4.8,0.,4.8,0.,4.8
1979-08-05 21:23:17.710 ,0,0,4.,4.8,312.,4.8,0.,4.8,0.,4.8
1979-08-05 21:23:22.510 ,0,0,2.,4.8,328.,4.8,0.,4.8,0.,4.8
1979-08-05 21:23:27.310 ,0,0,4.,4.8,320.,4.8,0.,4.8,0.,4.8
1979-08-05 21:23:32.110 ,0,0,,0,,0,,0,,0
1979-08-05 21:23:36.910 ,0,0,4.,4.8,304.,4.8,0.,4.8,0.,4.8
1979-08-05 21:23:41.710 ,0,0,4.,4.8,320.,4.8,0.,4.8,0.,4.8
1979-08-05 21:23:46.510 ,0,0,5.,4.8,296.,4.8,0.,4.8,0.,4.8
1979-08-05 21:23:51.310 ,0,0,2.,4.8,304.,4.8,0.,4.8,0.,4.8
1979-08-05 21:23:56.110 ,0,0,1.,4.8,304.,4.8,0.,4.8,0.,4.8
1979-08-05 21:24:00.910 ,1,0,7.,4.8,320.,4.8,0.,4.8,0.,4.8
1979-08-05 21:24:05.710 ,1,0,5.,4.8,304.,4.8,0.,4.8,0.,4.8
1979-08-05 21:24:10.510 ,1,0,4.,4.8,312.,4.8,0.,4.8,0.,4.8
1979-08-05 21:24:15.310 ,1,0,1.,4.8,280.,4.8,0.,4.8,0.,4.8
1979-08-05 21:24:20.110 ,1,0,4.,4.8,280.,4.8,0.,4.8,0.,4.8
1979-08-05 21:24:24.910 ,1,0,3.,4.8,288.,4.8,0.,4.8,0.,4.8
1979-08-05 21:24:29.710 ,1,0,5.,4.8,312.,4.8,0.,4.8,0.,4.8
1979-08-05 21:24:34.510 ,1,0,5.,4.8,312.,4.8,0.,4.8,0.,4.8
1979-08-05 21:24:39.310 ,1,0,6.,4.8,320.,4.8,0.,4.8,0.,4.8
1979-08-05 21:24:44.110 ,1,0,6.,4.8,296.,4.8,0.,4.8,0.,4.8
1979-08-05 21:24:48.910 ,2,0,1.,4.8,280.,4.8,0.,4.8,0.,4.8
1979-08-05 21:24:53.710 ,2,0,4.,4.8,296.,4.8,0.,4.8,0.,4.8
1979-08-05 21:24:58.510 ,2,0,5.,4.8,312.,4.8,0.,4.8,0.,4.8
1979-08-05 21:25:03.310 ,2,0,3.,4.8,288.,4.8,0.,4.8,0.,4.8
1979-08-05 21:25:08.110 ,2,0,4.,4.8,304.,4.8,0.,4.8,0.,4.8
1979-08-05 21:25:12.910 ,2,0,3.,4.8,352.,4.8,0.,4.8,0.,4.8
1979-08-05 21:25:17.710 ,2,0,4.,4.8,304.,4.8,0.,4.8,0.,4.8
1979-08-05 21:25:22.510 ,2,0,1.,4.8,320.,4.8,0.,4.8,0.,4.8
1979-08-05 21:25:27.310 ,2,0,3.,4.8,296.,4.8,0.,4.8,0.,4.8
1979-08-05 21:25:32.110 ,2,0,1.,4.8,328.,4.8,0.,4.8,1.,4.8
1979-08-05 21:25:36.910 ,3,0,2.,4.8,304.,4.8,0.,4.8,0.,4.8
1979-08-05 21:25:41.710 ,3,0,2.,4.8,304.,4.8,0.,4.8,0.,4.8
1979-08-05 21:25:46.510 ,3,0,3.,4.8,296.,4.8,0.,4.8,0.,4.8
1979-08-05 21:25:51.310 ,3,0,2.,4.8,312.,4.8,0.,4.8,0.,4.8
1979-08-05 21:25:56.110 ,3,0,3.,4.8,280.,4.8,0.,4.8,0.,4.8
1979-08-05 21:26:00.910 ,3,0,1.,4.8,296.,4.8,0.,4.8,0.,4.8
1979-08-05 21:26:05.710 ,3,0,3.,4.8,304.,4.8,0.,4.8,0.,4.8
1979-08-05 21:26:10.510 ,3,0,4.,4.8,296.,4.8,0.,4.8,0.,4.8
1979-08-05 21:26:15.310 ,3,0,3.,4.8,320.,4.8,0.,4.8,0.,4.8
1979-08-05 21:26:20.110 ,3,0,1.,4.8,328.,4.8,0.,4.8,0.,4.8
1979-08-05 21:26:24.910 ,4,0,3.,4.8,360.,4.8,0.,4.8,0.,4.8
1979-08-05 21:26:29.710 ,4,0,2.,4.8,312.,4.8,0.,4.8,0.,4.8
1979-08-05 21:26:34.510 ,4,0,6.,4.8,312.,4.8,0.,4.8,0.,4.8
1979-08-05 21:26:39.310 ,4,0,4.,4.8,288.,4.8,0.,4.8,0.,4.8
1979-08-05 21:26:44.110 ,4,0,4.,4.8,304.,4.8,0.,4.8,0.,4.8
1979-08-05 21:26:48.910 ,4,0,2.,4.8,312.,4.8,0.,4.8,0.,4.8
1979-08-05 21:26:53.710 ,4,0,5.,4.8,312.,4.8,0.,4.8,0.,4.8
1979-08-05 21:26:58.510 ,4,0,2.,4.8,296.,4.8,0.,4.8,0.,4.8
1979-08-05 21:27:03.310 ,4,0,8.,4.8,320.,4.8,0.,4.8,0.,4.8
1979-08-05 21:27:08.110 ,4,0,4.,4.8,304.,4.8,0.,4.8,0.,4.8
1979-08-05 21:27:12.910 ,5,0,4.,4.8,312.,4.8,0.,4.8,0.,4.8
1979-08-05 21:27:17.710 ,5,0,4.,4.8,304.,4.8,0.,4.8,0.,4.8
1979-08-05 21:27:22.510 ,5,0,7.,4.8,304.,4.8,0.,4.8,1.,4.8
1979-08-05 21:27:27.310 ,5,0,3.,4.8,304.,4.8,0.,4.8,0.,4.8
1979-08-05 21:27:32.110 ,5,0,6.,4.8,304.,4.8,0.,4.8,0.,4.8
1979-08-05 21:27:36.910 ,5,0,3.,4.8,320.,4.8,0.,4.8,0.,4.8
1979-08-05 21:27:41.710 ,5,0,2.,4.8,320.,4.8,0.,4.8,0.,4.8
1979-08-05 21:27:46.510 ,5,0,8.,4.8,328.,4.8,0.,4.8,0.,4.8
1979-08-05 21:27:51.310 ,5,0,9.,4.8,320.,4.8,0.,4.8,0.,4.8
1979-08-05 21:27:56.110 ,5,0,5.,4.8,320.,4.8,0.,4.8,0.,4.8
1979-08-05 21:28:00.910 ,6,0,2.,4.8,320.,4.8,0.,4.8,0.,4.8
1979-08-05 21:28:05.710 ,6,0,8.,4.8,328.,4.8,0.,4.8,0.,4.8
1979-08-05 21:28:10.510 ,6,0,4.,4.8,344.,4.8,0.,4.8,0.,4.8
1979-08-05 21:28:15.310 ,6,0,4.,4.8,312.,4.8,0.,4.8,0.,4.8
1979-08-05 21:28:20.110 ,6,0,6.,4.8,336.,4.8,0.,4.8,0.,4.8
1979-08-05 21:28:24.910 ,0,0,2.,4.8,304.,4.8,0.,4.8,0.,4.8
1979-08-05 21:28:29.710 ,0,0,5.,4.8,304.,4.8,0.,4.8,0.,4.8
1979-08-05 21:28:34.510 ,0,0,3.,4.8,328.,4.8,0.,4.8,0.,4.8
1979-08-05 21:28:39.310 ,0,0,1.,4.8,328.,4.8,0.,4.8,0.,4.8
1979-08-05 21:28:44.110 ,0,0,1.,4.8,328.,4.8,0.,4.8,0.,4.8
1979-08-05 21:28:48.910 ,7,0,4.,4.8,336.,4.8,0.,4.8,0.,4.8
1979-08-05 21:28:53.710 ,7,0,2.,4.8,352.,4.8,0.,4.8,0.,4.8
1979-08-05 21:28:58.510 ,7,0,5.,4.8,312.,4.8,0.,4.8,0.,4.8
1979-08-05 21:29:03.310 ,7,0,3.,4.8,312.,4.8,0.,4.8,0.,4.8
1979-08-05 21:29:08.110 ,7,0,3.,4.8,320.,4.8,0.,4.8,0.,4.8
1979-08-05 21:29:12.910 ,7,0,4.,4.8,304.,4.8,0.,4.8,0.,4.8
1979-08-05 21:29:17.710 ,7,0,2.,4.8,320.,4.8,0.,4.8,0.,4.8
1979-08-05 21:29:22.510 ,7,0,2.,4.8,296.,4.8,0.,4.8,0.,4.8
1979-08-05 21:29:27.310 ,7,0,1.,4.8,328.,4.8,0.,4.8,0.,4.8
1979-08-05 21:29:32.110 ,7,0,5.,4.8,328.,4.8,0.,4.8,0.,4.8
1979-08-05 21:29:36.910 ,7,0,6.,4.8,272.,4.8,0.,4.8,0.,4.8
1979-08-05 21:29:41.710 ,7,0,6.,4.8,296.,4.8,0.,4.8,0.,4.8
1979-08-05 21:29:46.510 ,7,0,2.,4.8,328.,4.8,0.,4.8,0.,4.8
1979-08-05 21:29:51.310 ,7,0,,0,,0,,0,,0
1979-08-05 21:29:56.110 ,7,0,4.,4.8,296.,4.8,0.,4.8,0.,4.8
1979-08-05 21:30:00.910 ,7,0,6.,4.8,344.,4.8,0.,4.8,0.,4.8
1979-08-05 21:30:05.710 ,7,0,4.,4.8,312.,4.8,0.,4.8,0.,4.8
1979-08-05 21:30:10.510 ,7,0,8.,4.8,328.,4.8,0.,4.8,0.,4.8
1979-08-05 21:30:15.310 ,7,0,7.,4.8,304.,4.8,0.,4.8,0.,4.8
1979-08-05 21:30:20.110 ,7,0,4.,4.8,328.,4.8,0.,4.8,0.,4.8
1979-08-05 21:30:24.910 ,6,0,3.,4.8,304.,4.8,0.,4.8,0.,4.8
1979-08-05 21:30:29.710 ,6,0,6.,4.8,312.,4.8,0.,4.8,0.,4.8
1979-08-05 21:30:34.510 ,6,0,6.,4.8,352.,4.8,0.,4.8,0.,4.8
1979-08-05 21:30:39.310 ,6,0,7.,4.8,296.,4.8,0.,4.8,0.,4.8
1979-08-05 21:30:44.110 ,6,0,3.,4.8,304.,4.8,0.,4.8,0.,4.8
1979-08-05 21:30:48.910 ,6,0,4.,4.8,312.,4.8,0.,4.8,0.,4.8
1979-08-05 21:30:53.710 ,6,0,4.,4.8,304.,4.8,0.,4.8,0.,4.8
1979-08-05 21:30:58.510 ,6,0,4.,4.8,312.,4.8,0.,4.8,1.,4.8
1979-08-05 21:31:03.310 ,6,0,4.,4.8,320.,4.8,0.,4.8,0.,4.8
1979-08-05 21:31:08.110 ,6,0,6.,4.8,352.,4.8,0.,4.8,0.,4.8
1979-08-05 21:31:12.910 ,5,0,2.,4.8,352.,4.8,0.,4.8,0.,4.8
1979-08-05 21:31:17.710 ,5,0,5.,4.8,320.,4.8,0.,4.8,0.,4.8
1979-08-05 21:31:22.510 ,5,0,8.,4.8,336.,4.8,0.,4.8,0.,4.8
1979-08-05 21:31:27.310 ,5,0,5.,4.8,344.,4.8,0.,4.8,0.,4.8
1979-08-05 21:31:32.110 ,5,0,6.,4.8,368.,4.8,0.,4.8,0.,4.8
1979-08-05 21:31:36.910 ,5,0,8.,4.8,376.,4.8,0.,4.8,0.,4.8
1979-08-05 21:31:41.710 ,5,0,8.,4.8,376.,4.8,0.,4.8,0.,4.8
1979-08-05 21:31:46.510 ,5,0,4.,4.8,336.,4.8,0.,4.8,0.,4.8
1979-08-05 21:31:51.310 ,5,0,6.,4.8,344.,4.8,0.,4.8,0.,4.8
1979-08-05 21:31:56.110 ,5,0,3.,4.8,344.,4.8,0.,4.8,0.,4.8
1979-08-05 21:32:00.910 ,4,0,2.,4.8,360.,4.8,0.,4.8,0.,4.8
1979-08-05 21:32:05.710 ,4,0,5.,4.8,328.,4.8,0.,4.8,0.,4.8
1979-08-05 21:32:10.510 ,4,0,3.,4.8,304.,4.8,0.,4.8,0.,4.8
1979-08-05 21:32:15.310 ,4,0,6.,4.8,328.,4.8,0.,4.8,0.,4.8
1979-08-05 21:32:20.110 ,4,0,5.,4.8,288.,4.8,0.,4.8,0.,4.8